Tracking 28052 objects as of 23-Sep-2023
HD Live streaming from Space Station
objects crossing your sky now

COSMOS 1823 DEB

Track COSMOS 1823 DEB now!
10-day predictions


NORAD ID: 39828
Int'l Code: 1987-020FC
Perigee: 1,531.5 km
Apogee: 1,720.2 km
Inclination: 74.2 °
Period: 118.6 minutes
Semi major axis: 7996 km
RCS: 0.016 m2 (small)
Launch date: February 20, 1987
Source: Commonwealth of Independent States (former USSR) (CIS)
Launch site: PLESETSK MISSILE AND SPACE COMPLEX (PKMTR)

Note: This is SATELLITE DEBRIS
Your satellite tracking list
Your tracking list is empty




NASA's NSSDC Master Catalog

Two Line Element Set (TLE):
1 39828U 87020FC  23255.03399487  .00000039  00000-0  53555-3 0  9995
2 39828  74.2394 182.0825 0117936 209.9288 149.4966 12.14017966 98948
Source of the keplerian elements: AFSPC